Hourly Data Report for June 08, 2021

FISHER BRANCH (AUT)
MANITOBA
Current Station Operator: ECCC - MSC

51°05'00.100" N
97°33'16.200" W
253.00 m
50309J6
71442
WSZ

Download Data

Hourly Data (June 2021)
Hourly Data Report for June 8, 2021
TIME
LST
Temp Definition
°C
Dew Point Definition
°C
Rel Hum Definition
%
Precip. Amount Definition
mm

Wind Dir Definition
10's deg

Wind Spd Definition
km/h
Visibility Definition
km
Stn Press Definition
kPa
Hmdx Definition


Wind Chill Definition


Weather Definition


00:00 13.0 10.0 82 0.0 12 7   98.30     LegendNANA
01:00 11.8 9.7 87 0.0 6 6   98.32     LegendNANA
02:00 9.4 8.0 91 0.0 8 3   98.41     LegendNANA
03:00 7.7 6.6 93 0.0 2 4   98.42     LegendNANA
04:00 7.8 6.7 93 0.0 14 5   98.44     LegendNANA
05:00 7.8 6.8 93 0.0   0   98.48     LegendNANA
06:00 11.4 9.3 87 0.0 15 4   98.53     LegendNANA
07:00 17.1 11.2 68 0.0 13 12   98.58     LegendNANA
08:00 20.3 11.2 56 0.0 13 16   98.61     LegendNANA
09:00 23.0 10.5 45 0.0 11 11   98.65 25   LegendNANA
10:00 25.4 7.7 32 0.0 10 10   98.64 26   LegendNANA
11:00 27.1 6.7 27 0.0 14 10   98.66 27   LegendNANA
12:00 27.5 5.4 24 0.0 19 5   98.65 27   LegendNANA
13:00 28.2 4.8 23 0.0 20 6   98.67 27   LegendNANA
14:00 29.3 5.0 21 0.0 5 6   98.70 29   LegendNANA
15:00 30.5 5.3 20 0.0 10 9   98.68 30   LegendNANA
16:00 29.8 4.6 20 0.0 10 16   98.66 29   LegendNANA
17:00 29.3 4.4 21 0.0 11 11   98.67 28   LegendNANA
18:00 28.5 5.9 24 0.0 10 15   98.69 28   LegendNANA
19:00 26.3 6.3 28 0.0 11 14   98.71 26   LegendNANA
20:00 24.4 7.0 33 0.0 5 10   98.68     LegendNANA
21:00 23.2 6.7 35 0.0 7 9   98.72     LegendNANA
22:00 22.2 6.2 35 0.0 7 10   98.68     LegendNANA
23:00 22.1 6.8 37 0.0 6 15   98.64     LegendNANA

Notes on Data Quality.

Legend

  • E = Estimated
  • M = Missing
  • NA = Not Available*
  • [empty] = Indicates an unobserved value
Date modified: